OPS 7218 (TRANSIT 16)

Last updated on Sat Sep 05 2026 00:03:34 GMT+0000 (Coordinated Universal Time)

1 02807U 67048A 26247.23597145 .00000078 00000+0 10481-3 0 9990 2 02807 89.6785 345.2962 0021989 71.0742 319.7468 13.50778423918605
UTC large
Height (km)
Speed (km/s)
/
Latitude / Longitude
Inclination (degrees)
Orbital Period (minutes)
Azimuth
Elevation
Range (km)
Doppler Factor

Next 0 passes for location: London (51.5072 / 0.1276)

No passes found over London.
OPS 7218 (TRANSIT 16)